GFSSW_925_rhum_033.txt.gz
RH
94 94 74 67 79 81 75 63 59 54 71 65 65 40 25 20 13 43 22 11 13 15 43 39 40 41 36 34 32 30 45 36 21 27 22 19 21 22 24 32 30 30 40 47 55
90 69 56 59 60 63 55 60 74 66 52 78 73 55 25 23 45 19 13 15 12 15 37 30 33 34 34 32 28 32 84 53 17 15 23 20 19 22 26 29 33 32 38 48 50
65 50 44 36 38 48 52 54 67 65 75 53 63 53 28 32 28 9 11 12 11 22 18 25 26 30 31 24 26 26 54 52 17 16 18 19 20 18 22 28 30 39 44 43 46
47 44 38 32 32 37 33 39 40 39 40 43 35 34 32 54 14 20 14 14 12 24 15 21 22 31 28 26 22 27 24 31 16 15 16 19 18 21 19 19 24 32 38 40 43
42 38 32 32 30 29 27 24 25 27 30 37 80 44 64 24 11 20 10 29 25 26 13 19 23 26 26 19 20 24 21 18 17 15 14 16 20 24 22 18 21 30 36 39 40
39 36 34 30 29 27 29 20 23 29 55 82 99 88 48 23 9 7 13 29 20 25 12 15 18 20 21 18 20 18 20 18 16 15 13 14 18 20 22 20 24 31 35 36 37
36 33 30 26 24 23 25 22 30 59 57 75 100 74 29 19 9 5 15 20 19 20 11 13 13 19 18 20 16 18 18 18 17 14 12 12 17 21 19 23 27 30 33 34 34
34 30 26 22 18 20 17 29 56 70 55 62 98 58 29 15 17 8 14 17 19 19 12 12 12 15 18 14 14 19 18 18 13 12 11 12 17 15 16 23 28 29 30 32 33
38 32 25 19 18 16 14 29 84 72 59 90 69 41 24 16 12 12 11 17 19 20 18 13 14 18 18 19 15 13 18 17 13 11 11 12 14 13 15 20 25 28 29 29 31
38 31 23 20 23 20 20 30 65 76 73 62 44 36 24 14 11 9 10 15 19 19 20 17 18 20 20 22 22 15 14 13 15 12 11 12 13 14 14 18 22 27 28 29 29
38 32 27 18 22 26 31 18 25 41 38 29 24 21 14 12 10 8 13 15 18 20 25 21 24 27 17 20 15 12 11 12 12 11 12 13 13 13 13 16 19 25 28 29 29
41 32 27 19 26 28 23 21 27 30 31 16 12 11 14 14 15 8 10 13 22 25 17 19 24 14 10 9 14 14 12 11 10 10 12 13 13 11 11 15 17 22 25 27 27
40 31 24 17 28 22 22 21 24 26 27 13 9 10 9 14 17 13 7 12 20 24 16 13 11 10 8 8 10 11 12 11 11 10 10 12 14 13 11 12 16 18 22 23 26
42 32 26 24 24 22 16 20 22 26 29 9 11 10 9 10 17 11 6 9 14 20 18 13 8 9 9 9 8 9 8 9 10 11 15 11 18 14 12 12 17 17 21 22 24
44 38 25 51 41 23 20 18 22 25 20 8 11 11 9 11 9 13 9 6 11 13 14 15 11 9 10 9 7 8 6 8 9 11 11 11 14 13 11 12 13 16 18 19 21
40 42 39 28 25 18 19 18 22 31 19 11 10 12 13 12 11 10 11 6 8 10 10 11 7 7 8 8 7 7 7 7 7 8 14 12 12 13 11 11 11 12 14 16 18
36 40 45 40 21 18 20 16 21 20 8 19 19 14 12 12 14 12 15 12 12 14 13 10 9 7 7 9 8 9 9 12 11 11 12 9 11 12 9 8 9 10 12 12 15
36 36 35 24 18 19 20 18 24 12 24 22 22 20 21 15 12 12 15 17 10 10 10 13 14 9 8 8 10 10 9 10 16 11 9 8 11 10 8 7 7 9 9 11 14
53 23 22 18 19 19 20 20 16 26 28 26 23 20 17 14 15 13 14 15 14 9 13 13 13 8 8 7 8 11 11 7 7 7 7 6 7 6 6 7 8 9 9 10 13
60 23 20 18 20 19 20 21 20 20 19 20 27 22 28 23 19 17 13 11 13 11 11 13 15 9 8 8 8 9 8 10 8 13 12 8 8 8 9 9 8 9 10 9 10
43 18 20 20 19 16 16 17 19 16 16 20 22 26 32 38 36 24 17 20 19 17 12 13 14 13 9 10 11 10 10 10 8 8 10 12 8 5 7 8 9 8 9 9 9
27 25 22 21 19 15 18 21 24 17 15 19 21 24 26 33 46 36 30 29 22 22 19 14 16 19 11 8 8 8 10 11 12 15 8 8 9 5 5 6 7 8 8 8 9
33 23 19 19 26 21 20 20 20 21 20 24 23 35 41 45 60 59 43 30 22 22 28 21 21 23 17 10 9 10 9 9 9 8 13 11 9 7 8 7 7 8 8 9 9
34 29 21 18 19 24 28 27 28 30 23 21 31 34 43 39 30 41 51 35 23 22 36 33 24 22 18 15 11 13 10 9 9 12 11 11 9 9 9 10 11 10 8 9 10
37 35 35 36 30 30 31 29 34 38 24 22 34 42 42 51 51 87 55 36 23 28 24 23 33 24 18 13 13 11 11 10 11 10 12 9 10 9 10 10 9 9 10 11 12
68 53 41 43 35 42 34 38 37 29 28 28 30 32 33 47 45 48 63 49 41 33 29 22 30 26 23 16 19 18 13 10 9 10 10 9 9 7 8 8 9 9 10 11 11
83 79 69 56 43 41 44 36 32 29 29 33 36 31 32 34 34 28 30 30 29 32 31 32 27 31 33 22 22 25 17 14 11 10 10 12 10 8 9 10 11 11 11 11 10

GFSSW_925_rhum_036.txt.gz
RH
75 61 48 41 43 61 72 68 45 49 63 46 50 30 26 29 24 45 26 12 15 16 11 32 25 32 37 36 31 31 64 69 50 28 23 17 22 24 24 30 30 38 50 53 55
55 44 35 37 43 50 56 49 69 48 41 71 56 31 27 43 66 31 15 15 13 14 19 26 23 28 34 33 29 33 87 66 42 37 33 19 20 23 26 28 40 46 48 52 52
39 36 36 30 30 27 24 41 57 47 29 29 32 30 26 51 40 13 12 11 14 13 16 20 20 26 33 27 26 30 46 33 29 25 20 19 18 18 23 29 39 51 51 47 49
31 30 26 23 25 21 17 21 28 22 29 31 35 32 33 64 22 17 9 10 12 14 17 15 20 28 32 30 22 28 44 35 28 22 20 28 34 17 20 25 32 40 42 44 47
35 30 24 22 20 18 18 15 17 19 41 55 55 75 66 36 18 14 10 12 17 13 17 14 20 24 31 26 21 22 46 32 28 21 26 33 40 30 20 23 28 36 40 43 45
36 28 23 18 17 17 17 15 15 26 60 78 90 98 54 34 15 14 18 29 16 14 15 12 16 18 24 24 20 19 23 24 24 16 13 16 31 32 18 20 28 36 39 38 38
32 28 23 17 14 16 15 17 19 34 53 61 99 80 33 24 12 6 10 21 16 16 13 11 12 16 20 22 16 16 20 18 18 15 14 11 16 22 23 22 28 34 37 37 35
35 29 21 13 14 12 20 27 31 41 61 68 100 67 35 17 18 15 5 9 13 14 13 9 10 13 16 17 17 18 20 23 17 16 13 11 16 16 23 23 29 31 33 36 34
38 30 21 14 14 22 25 22 30 47 70 86 80 45 29 18 17 14 9 10 12 14 14 10 9 12 14 22 24 19 24 23 19 15 13 12 14 14 19 22 28 29 30 32 35
39 32 22 14 14 23 24 20 29 57 77 68 53 40 28 17 12 14 12 8 11 14 16 13 12 14 15 20 31 22 18 18 19 13 12 12 12 14 15 21 26 28 28 30 32
39 34 25 15 13 22 27 17 13 36 18 29 27 22 14 14 10 10 11 8 12 16 22 18 18 18 16 18 19 16 13 14 13 12 12 13 12 16 16 28 23 26 29 29 29
35 30 23 15 13 22 24 14 14 16 22 15 14 13 14 14 14 9 9 10 16 23 21 21 23 16 14 15 17 18 16 12 10 10 12 13 12 12 14 21 20 23 26 27 27
34 28 23 15 19 21 13 13 12 14 20 15 11 10 8 9 15 12 8 10 15 22 23 23 19 15 15 16 15 18 18 14 11 9 11 14 15 14 12 14 16 20 22 24 27
35 29 25 24 21 24 13 12 12 14 22 11 8 7 7 6 11 11 7 13 15 20 21 20 15 16 16 16 13 15 13 12 12 11 14 14 19 18 12 12 15 16 20 22 25
34 28 31 25 43 23 13 12 12 14 27 7 8 8 6 6 7 10 9 9 15 14 19 21 14 12 15 14 8 9 7 10 10 11 11 11 14 14 13 14 14 15 18 21 22
32 28 36 31 28 21 12 12 12 22 22 13 11 15 11 7 7 7 12 9 10 12 15 18 12 9 8 8 7 6 6 6 7 9 15 12 12 15 13 15 13 13 15 20 20
37 32 36 44 23 13 13 12 15 21 9 18 22 18 18 16 9 8 14 16 12 18 18 16 16 11 8 8 7 7 8 12 13 12 14 10 12 13 9 10 11 11 14 18 19
41 38 31 31 16 14 13 16 23 13 15 17 17 17 20 16 15 10 12 16 11 10 14 16 16 12 8 8 9 8 8 11 18 14 10 9 12 12 9 7 7 8 11 13 16
41 38 24 20 16 14 16 21 19 21 19 18 16 19 21 21 27 17 13 14 13 9 15 14 14 9 9 6 7 9 10 6 8 8 8 7 8 6 7 8 8 7 9 12 14
65 41 30 18 14 15 19 22 14 14 14 14 19 16 24 22 29 33 24 11 13 9 8 12 14 9 8 7 7 8 7 10 9 16 16 10 11 10 10 10 9 9 8 10 12
45 22 17 18 15 17 21 13 15 11 11 13 15 16 17 59 44 42 34 35 20 16 11 10 13 11 9 10 10 9 10 10 8 9 12 13 8 7 12 10 10 9 9 10 11
43 34 18 16 19 13 15 16 22 19 21 16 17 15 30 50 51 65 62 56 37 22 23 14 12 16 15 8 7 8 10 11 13 18 10 11 9 6 8 9 9 8 9 10 11
47 32 18 15 23 20 16 16 15 28 27 33 21 17 24 32 54 68 79 54 35 28 30 28 22 22 20 13 9 10 9 9 10 9 16 13 10 7 8 7 9 9 10 12 14
48 44 31 21 19 26 24 21 23 21 32 44 35 20 23 33 30 84 69 56 39 31 43 30 29 24 21 18 12 13 10 9 9 13 13 11 11 10 9 8 8 11 11 11 15
41 47 46 45 38 34 26 24 36 36 52 31 22 43 41 39 42 57 70 45 43 36 26 24 33 24 18 15 12 10 10 10 11 11 14 10 10 12 13 12 11 10 12 13 16
77 95 73 61 42 37 38 29 40 25 21 28 32 31 29 27 32 48 49 48 66 36 31 26 33 28 29 21 17 17 10 10 9 9 9 9 9 10 11 12 12 14 14 16 16
63 78 95 86 52 50 47 42 31 25 26 24 24 25 28 23 26 24 23 25 31 32 32 32 34 35 36 25 22 22 16 11 9 8 8 12 10 11 13 13 13 12 12 12 11

GFSSW_925_rhum_042.txt.gz
RH
52 43 40 48 40 32 43 56 62 51 49 20 29 43 53 48 41 58 74 15 8 42 27 48 62 58 64 71 56 60 80 86 75 70 54 51 62 50 53 61 52 53 55 52 54
41 37 31 26 26 29 31 42 39 26 21 25 30 61 69 68 73 77 18 13 9 23 49 57 50 41 73 70 64 79 96 76 56 54 56 56 58 53 59 61 65 61 50 55 56
32 32 26 22 18 16 21 27 25 26 28 32 50 83 87 67 81 42 14 16 14 12 29 38 31 31 39 52 66 79 85 60 46 49 37 33 52 50 62 77 68 71 66 59 58
26 24 23 18 14 12 12 19 24 26 27 32 56 98 71 74 29 14 11 14 17 15 19 17 19 33 38 50 47 66 61 48 42 41 42 34 37 55 54 62 58 59 59 59 63
26 23 19 15 11 10 10 15 19 21 26 36 71 99 71 70 45 16 16 16 21 19 26 20 19 27 37 39 41 47 44 42 35 32 35 32 33 49 56 58 56 56 56 61 63
25 20 18 13 10 8 10 14 17 20 34 53 97 98 80 54 14 19 20 20 21 30 22 18 18 19 29 30 41 37 38 33 29 30 33 36 39 52 61 59 61 60 60 59 59
24 21 17 13 9 7 10 15 17 20 31 45 99 94 81 37 14 21 28 17 17 20 21 16 15 20 22 32 26 30 38 34 32 28 36 33 39 64 60 59 64 63 61 59 57
22 21 19 14 9 8 12 16 17 25 33 55 99 91 89 18 19 22 29 29 32 16 14 15 14 20 20 18 18 31 36 45 34 31 31 31 46 60 59 62 67 64 61 59 60
26 21 20 16 9 10 15 19 13 38 60 86 93 90 84 28 36 23 24 24 23 19 15 12 14 22 19 21 26 31 41 40 37 31 30 31 47 58 58 62 66 63 60 59 58
29 28 25 18 12 13 20 16 12 45 67 83 76 80 45 21 17 18 19 22 20 19 19 17 20 26 23 29 34 38 43 36 34 25 30 33 48 60 57 61 65 64 59 58 58
34 34 31 24 12 16 23 15 15 18 16 16 16 46 18 13 11 16 18 20 21 21 29 26 27 31 24 22 22 28 34 36 29 22 23 29 50 59 55 58 63 64 63 60 59
34 32 30 27 12 20 25 22 16 13 20 12 12 13 12 12 15 12 16 22 24 26 25 32 31 23 22 19 20 22 25 32 29 24 22 26 51 53 51 56 56 59 61 60 55
24 22 27 30 14 19 28 19 19 15 21 18 14 13 13 13 15 14 15 20 23 25 24 29 27 22 22 21 20 22 24 24 33 26 19 22 42 50 47 49 49 52 52 51 48
19 19 24 32 19 32 27 16 17 15 34 24 16 14 11 13 14 10 10 18 21 20 19 24 21 23 25 23 18 24 18 18 22 29 38 18 34 55 54 60 55 54 55 53 48
19 16 29 37 39 45 18 21 20 17 20 15 15 10 10 15 16 17 16 16 22 22 18 23 23 26 26 24 19 20 17 18 21 28 29 27 30 41 57 65 54 50 46 46 47
17 15 38 38 35 17 22 24 18 30 35 17 14 14 13 14 14 18 20 20 16 21 19 18 19 22 24 21 21 18 21 23 23 27 37 28 26 28 60 56 51 51 44 44 42
16 18 38 26 25 20 30 24 32 30 16 19 19 15 15 15 16 21 26 32 54 32 26 20 19 19 22 27 23 23 29 38 37 33 33 23 25 21 32 44 44 48 52 51 44
16 30 45 32 24 27 38 33 38 21 20 15 18 16 16 22 26 22 30 40 47 67 51 25 27 20 19 26 29 27 26 42 45 36 27 18 24 20 14 22 33 38 47 44 40
20 35 37 22 25 32 32 48 35 24 21 24 23 26 26 24 35 31 33 44 49 59 86 76 24 19 18 19 21 26 30 21 21 20 22 19 14 11 10 10 17 28 40 39 38
60 60 46 31 26 26 37 44 32 22 22 24 39 35 38 35 41 43 36 33 51 48 51 67 66 20 18 16 19 17 17 23 24 25 24 20 17 19 12 10 10 17 30 32 34
62 74 37 30 21 34 40 36 22 18 23 34 39 42 33 32 29 42 35 32 44 51 52 61 67 39 15 19 22 24 17 16 18 23 25 25 18 10 13 13 11 12 23 30 31
87 86 35 32 37 44 44 34 28 22 30 30 29 31 34 42 43 41 44 53 56 59 76 60 81 84 35 16 14 20 19 16 16 22 24 24 15 13 12 10 9 8 13 27 30
99 89 38 36 70 70 49 46 33 39 38 38 38 39 38 43 55 63 59 42 49 60 85 89 85 93 42 22 15 16 20 15 17 18 22 18 15 12 15 16 18 11 11 18 26
96 80 72 68 60 70 79 62 53 37 34 38 40 39 42 53 52 56 58 52 45 51 61 88 88 90 84 50 39 24 16 17 15 19 16 16 14 14 14 18 16 12 17 20 26
84 81 81 92 80 89 75 64 54 54 50 43 37 42 49 61 55 54 49 42 38 50 69 93 95 61 52 42 38 40 25 16 14 13 16 14 16 14 18 23 20 19 24 25 26
87 86 91 80 85 81 71 65 74 73 65 61 72 64 44 59 57 66 60 55 56 56 73 87 89 67 53 40 39 34 25 25 13 12 17 17 16 13 16 28 28 29 33 36 25
72 84 92 94 87 98 74 77 78 61 78 61 67 70 61 55 52 57 53 46 45 59 78 84 71 72 70 47 33 37 36 26 16 12 13 18 17 15 47 53 56 31 24 28 34

GFSSW_925_rhum_045.txt.gz
RH
46 36 30 27 29 36 37 30 20 22 25 28 33 37 91 86 59 64 76 16 10 35 33 69 69 70 71 80 64 59 79 84 75 74 64 61 69 74 64 64 53 52 62 64 75
31 28 23 22 29 31 25 20 20 23 25 26 32 51 98 97 78 84 18 19 10 36 43 73 76 64 78 79 71 84 94 73 55 57 63 60 62 70 64 61 64 62 60 64 72
25 22 21 20 20 22 17 14 15 18 21 26 31 75 99 81 85 42 17 24 12 42 31 58 58 59 73 69 74 79 82 66 50 49 69 57 57 53 64 78 65 69 66 61 68
24 21 20 18 15 14 12 12 15 18 23 30 37 97 64 76 24 19 20 19 15 37 44 44 40 41 52 60 55 84 69 64 43 39 47 45 52 59 62 64 55 55 56 56 64
22 20 19 17 14 10 9 13 16 19 26 43 45 100 64 62 38 15 24 31 20 46 33 33 38 39 49 49 49 66 62 53 55 52 42 36 51 58 62 60 50 53 52 54 57
27 25 22 17 14 10 10 16 19 16 34 62 76 95 75 36 13 25 26 40 37 30 29 20 25 30 34 34 50 43 44 44 42 44 38 37 40 58 65 58 58 61 57 54 54
28 28 25 21 17 11 11 20 17 16 48 36 100 87 83 34 18 20 42 28 25 24 27 20 17 24 24 32 27 33 42 37 36 38 37 38 56 64 66 62 67 66 64 59 62
27 26 24 24 20 12 13 19 17 27 51 59 96 85 87 25 29 27 39 35 44 24 18 18 16 22 22 22 20 34 38 50 37 34 32 35 52 74 66 67 71 67 65 62 64
22 20 20 23 23 14 19 14 15 48 57 77 90 89 87 31 29 13 20 27 34 34 20 16 16 21 20 25 30 28 46 49 41 33 33 36 65 72 67 69 73 68 65 64 63
19 19 18 19 22 15 19 13 17 56 66 78 82 68 35 17 13 11 18 26 23 27 20 18 21 26 30 32 45 37 43 38 39 32 36 42 50 73 69 71 74 71 66 64 64
19 16 18 20 21 19 17 14 27 22 17 16 16 29 16 14 12 12 11 26 22 24 31 26 26 27 22 26 24 30 36 38 34 29 32 39 46 75 70 70 74 73 71 67 64
19 17 18 23 18 19 21 21 23 25 26 15 14 14 13 12 15 13 11 30 30 32 30 34 30 21 20 24 24 24 27 32 29 27 27 31 40 63 70 70 69 71 70 67 62
20 16 17 24 16 19 27 19 25 27 23 20 15 14 14 13 15 15 12 19 29 35 31 33 29 22 25 24 25 24 26 26 29 29 25 37 47 56 68 63 62 63 63 61 60
18 15 20 24 20 23 24 22 26 23 31 20 16 14 11 14 16 14 17 16 23 30 29 30 22 24 25 28 25 33 21 21 24 29 40 25 51 75 68 71 65 65 64 61 59
17 15 32 36 30 33 21 25 26 18 20 16 15 10 11 12 14 17 15 23 24 23 23 25 25 26 28 26 24 25 19 22 22 27 32 28 40 64 62 69 67 62 60 59 57
17 16 44 41 34 23 24 29 17 26 27 19 15 15 14 15 16 18 21 32 34 42 21 23 17 21 22 22 22 20 20 22 26 33 38 27 37 38 62 57 59 56 53 52 53
15 20 42 46 29 32 32 25 28 29 18 21 21 18 17 30 24 24 37 65 75 67 53 28 24 18 22 25 25 24 31 42 44 46 38 28 36 29 45 44 44 53 48 44 49
15 23 36 34 33 33 31 31 34 26 24 18 21 19 23 36 32 28 33 55 57 68 84 94 36 22 18 28 30 31 31 52 55 52 38 29 37 29 28 36 38 37 40 39 45
20 31 35 36 30 34 33 48 38 27 25 27 26 34 35 32 35 36 39 51 54 60 81 88 70 46 29 18 26 35 36 29 34 25 29 28 19 15 20 31 40 41 38 40 41
49 65 44 32 30 28 38 42 34 22 23 30 40 37 41 32 34 43 36 42 53 52 50 68 90 55 39 20 22 29 26 34 32 41 32 27 19 22 17 18 30 44 41 38 38
65 75 40 33 27 36 41 41 28 25 26 33 38 40 37 40 42 46 38 45 55 56 47 61 73 69 54 26 22 27 30 28 32 32 36 29 22 17 15 14 16 32 34 36 40
92 56 41 33 57 62 55 50 37 30 31 31 30 35 34 41 48 44 58 55 52 50 77 75 93 93 78 43 44 39 28 23 32 37 28 28 23 12 12 12 14 14 24 29 35
98 97 44 38 84 89 69 59 40 42 38 38 38 39 39 46 51 60 63 45 51 58 77 77 98 93 52 34 34 34 26 22 20 26 28 30 25 13 13 14 14 15 13 22 32
94 86 78 74 78 85 93 77 57 40 44 51 42 41 45 52 51 52 66 52 44 50 70 71 97 88 81 75 58 55 48 41 29 24 22 18 16 13 12 14 15 20 21 15 26
87 82 85 92 87 91 90 80 66 70 58 55 50 69 74 66 56 64 53 48 53 65 80 91 94 88 75 65 58 54 50 43 45 21 18 16 17 13 15 15 32 37 23 18 23
89 91 91 93 86 92 83 70 77 68 70 73 78 82 75 76 59 54 57 57 59 75 85 90 89 88 82 55 50 54 41 38 38 30 16 16 18 15 50 57 64 66 34 21 30
85 85 89 87 88 97 97 96 95 95 86 74 90 96 89 68 56 54 54 54 55 76 93 97 96 92 92 54 48 54 47 44 36 49 39 21 24 41 69 73 80 82 69 34 27

GFSSW_925_rhum_048.txt.gz
RH
33 35 34 34 40 32 18 15 17 19 21 22 26 35 65 96 82 71 81 19 12 19 38 93 83 79 79 84 73 59 83 83 78 83 75 73 70 69 66 72 55 57 73 73 90
31 28 27 26 25 20 17 15 16 18 20 28 33 36 87 100 84 89 12 17 15 21 62 94 87 74 84 87 78 84 94 74 60 57 74 67 61 75 75 70 65 73 74 83 85
30 29 27 24 20 17 15 15 17 20 25 32 53 45 99 77 79 37 39 25 17 51 62 60 61 74 85 82 82 82 92 67 51 50 54 55 61 64 69 76 66 82 86 79 82
29 27 26 26 23 16 12 17 20 22 21 43 55 82 90 69 17 25 20 21 18 57 53 59 66 73 82 78 72 90 75 71 53 46 52 53 56 62 64 64 56 67 74 75 79
22 20 22 23 24 17 11 16 22 20 19 40 49 100 72 47 32 29 29 35 41 65 51 50 66 51 74 67 54 78 67 60 56 57 56 49 55 63 64 58 55 62 69 74 75
18 16 18 18 23 16 11 18 22 21 36 38 38 92 75 21 21 24 37 44 60 54 46 36 55 38 45 50 61 50 54 54 49 49 50 53 51 61 67 56 61 64 69 71 70
18 15 15 16 22 16 14 20 21 22 47 40 73 82 77 36 23 32 47 46 49 54 37 27 29 38 30 36 33 41 43 36 38 43 46 41 66 64 62 57 63 63 64 68 66
20 16 14 16 22 14 18 18 18 27 52 72 93 84 77 27 32 18 42 42 37 43 24 26 20 26 25 24 22 35 38 49 39 39 38 42 57 76 62 65 67 61 59 62 62
19 17 13 18 26 16 16 15 19 60 63 95 91 86 35 21 21 13 11 33 43 35 24 18 17 23 24 31 38 32 56 53 45 36 36 42 68 77 68 70 73 64 59 57 59
18 16 12 18 18 18 15 16 31 65 79 82 80 54 22 14 12 12 22 32 38 38 31 21 24 28 36 41 60 42 42 43 43 33 41 46 56 82 73 74 75 71 66 62 62
17 16 14 15 18 18 16 21 32 27 25 21 18 18 17 12 12 12 12 29 25 31 41 26 31 29 24 34 31 34 41 41 36 30 45 48 62 85 78 76 78 75 72 69 64
22 20 18 14 18 18 20 30 30 32 36 18 17 16 14 13 15 16 12 34 30 36 32 34 33 23 20 24 30 30 27 35 31 28 35 41 48 75 79 78 75 75 72 70 66
20 18 23 23 16 20 25 25 30 32 26 20 16 16 14 14 15 18 19 19 33 36 35 35 28 21 22 27 30 32 33 28 32 26 28 32 42 72 76 72 70 70 69 66 65
17 15 30 29 22 24 23 30 37 27 26 18 15 13 11 13 16 14 15 20 20 40 35 33 27 23 23 26 28 41 26 26 25 29 40 30 53 65 84 81 75 72 71 68 66
14 15 34 40 40 32 27 36 28 18 21 17 16 10 12 15 14 17 26 32 26 22 31 39 32 30 29 23 24 24 24 25 25 31 29 28 36 43 76 94 81 72 68 65 63
14 15 38 37 36 34 33 35 20 25 26 20 16 18 25 23 23 22 45 42 44 50 30 25 20 25 24 24 24 23 23 27 30 35 42 31 31 40 75 73 76 67 64 62 60
16 16 38 44 45 34 34 23 27 27 20 23 23 21 24 34 31 28 48 62 74 84 72 48 24 20 21 27 24 27 31 47 46 48 42 33 31 36 30 56 58 64 61 59 58
18 21 41 40 35 31 24 29 27 27 27 22 23 23 27 32 33 31 42 70 58 69 85 87 40 27 22 27 32 31 34 52 56 56 39 37 44 34 21 35 45 47 53 52 55
23 32 41 36 32 32 33 47 41 30 26 27 28 36 35 30 34 34 43 69 60 60 81 93 69 47 38 33 26 35 39 32 42 34 44 33 30 21 20 25 44 44 44 52 50
51 61 44 34 30 25 36 43 32 26 26 31 34 34 42 34 38 42 37 57 59 55 52 70 95 55 49 38 28 34 28 37 46 52 44 38 26 34 24 29 36 46 45 44 46
63 61 40 32 26 40 43 42 32 27 30 34 38 35 40 39 43 46 42 59 58 57 52 71 80 71 59 46 32 30 37 38 35 43 50 42 33 23 25 23 21 29 46 42 43
85 46 41 34 57 78 67 63 48 36 34 32 32 37 38 42 49 47 51 57 54 52 74 77 89 89 81 53 48 48 47 38 42 48 40 43 36 15 16 18 19 16 30 42 41
98 98 44 41 81 90 84 74 56 45 47 44 41 35 38 47 50 58 59 51 53 57 74 74 92 94 60 48 49 49 44 49 48 36 41 40 39 18 16 15 18 17 18 32 44
92 81 76 81 86 88 94 83 71 49 53 55 50 51 48 51 50 47 65 54 51 54 63 76 90 86 80 64 66 67 55 50 50 57 36 35 32 20 17 17 16 18 19 19 26
90 88 87 93 89 89 92 82 81 75 64 59 56 70 76 78 57 64 60 56 64 62 81 88 95 80 83 79 66 63 63 57 54 49 51 28 24 22 22 20 23 40 44 38 27
91 91 91 92 82 83 87 83 88 80 85 78 74 66 89 92 64 56 58 58 77 74 92 94 92 84 91 66 63 58 50 48 46 44 42 42 29 25 48 67 86 92 90 86 57
87 89 91 86 87 96 94 97 95 96 85 84 93 98 98 94 83 79 55 56 59 84 96 93 94 92 88 66 59 58 46 47 48 48 55 34 41 56 76 91 88 88 87 94 92